Weather History for Glendale Luke AFB, AZ

Change the Weather History Date:

Tuesday, January 7, 2014

  Actual Average Record
Temperature  
Mean Temperature 52 °F -  
Max Temperature 65 °F 64 °F - (-1)
Min Temperature 38 °F 36 °F - (-1)
Degree Days  
Heating Degree Days 14    
Growing Degree Days 2 (Base 50)    
Moisture  
Dew Point 24 °F    
Average Humidity 38    
Maximum Humidity 55    
Minimum Humidity 16    
Precipitation  
Precipitation 0.00 in - - ()
Sea Level Pressure  
Sea Level Pressure 30.09 in    
Wind  
Wind Speed 5 mph (North)    
Max Wind Speed 8 mph    
Max Gust Speed -    
Visibility 10 miles    
Events      
Averages and records for this station are not official NWS values.
T = Trace of Precipitation, MM = Missing Value Source: NWS Daily Summary

Daily Weather History Graph

Daily Weather History Graph

Search for Another Location

Airport:

Trip Planner

Search our weather history database for the weather conditions in past years. The results will help you decide how hot, cold, wet, or windy it might be!

Date:

Astronomy

Jan. 07, 2014 Rise Set
Actual Time 7:34 AM MST 5:37 PM MST
Civil Twilight 7:07 AM MST 6:04 PM MST
Nautical Twilight 6:36 AM MST 6:35 PM MST
Astronomical Twilight 6:06 AM MST 7:05 PM MST
Moon 11:47 AM MST (1/7) No Moon Set
Length of Visible Light 10h 57m
Length of Day
10h 02m
Waxing Crescent, 46% of the Moon is Illuminated
Jan 7
Waxing Crescent
Jan 7
First Quarter
Jan 15
Full
Jan 23
Last Quarter
Jan 30
New

Hourly Weather History & Observations

Time (MST) Temp. Windchill Dew Point Humidity Pressure Visibility Wind Dir Wind Speed Gust Speed Precip Events Conditions
12:58 AM 43.0 °F 38.2 °F 21.7 °F 43% 30.13 in 10.0 mi NNW 8.1 mph - N/A   Clear
1:58 AM 42.4 °F 38.1 °F 20.7 °F 42% 30.14 in 10.0 mi North 6.9 mph - N/A   Clear
2:58 AM 41.7 °F 36.7 °F 20.8 °F 43% 30.14 in 10.0 mi North 8.1 mph - N/A   Clear
3:58 AM 40.8 °F 36.2 °F 20.7 °F 45% 30.15 in 10.0 mi North 6.9 mph - N/A   Clear
4:58 AM 40.8 °F 36.9 °F 20.8 °F 45% 30.14 in 10.0 mi ENE 5.8 mph - N/A   Clear
5:58 AM 38.3 °F 33.2 °F 22.5 °F 53% 30.14 in 10.0 mi North 6.9 mph - N/A   Scattered Clouds
6:58 AM 38.7 °F 35.2 °F 21.6 °F 50% 30.14 in 10.0 mi NE 4.6 mph - N/A   Mostly Cloudy
7:58 AM 39.2 °F 35.9 °F 23.9 °F 54% 30.15 in 10.0 mi NNW 4.6 mph - N/A   Mostly Cloudy
8:58 AM 42.8 °F 41.1 °F 27.5 °F 55% 30.16 in 10.0 mi NNW 3.5 mph - N/A   Mostly Cloudy
9:58 AM 54.9 °F - 23.5 °F 30% 30.16 in 10.0 mi NNW 2.3 mph - N/A   Mostly Cloudy
10:58 AM 58.1 °F - 24.3 °F 27% 30.16 in 10.0 mi Calm Calm - N/A   Mostly Cloudy
11:58 AM 61.2 °F - 18.0 °F 19% 30.11 in 10.0 mi SE 6.9 mph - N/A   Partly Cloudy
12:58 PM 62.6 °F - 17.4 °F 17% 30.07 in 10.0 mi North 1.2 mph - N/A   Scattered Clouds
1:58 PM 64.4 °F - 19.0 °F 18% 30.06 in 10.0 mi NNW 4.6 mph - N/A   Mostly Cloudy
2:58 PM 65.1 °F - 18.1 °F 16% 30.04 in 10.0 mi Calm Calm - N/A   Mostly Cloudy
3:58 PM 64.8 °F - 19.2 °F 17% 30.04 in 10.0 mi Calm Calm - N/A   Mostly Cloudy
4:58 PM 63.7 °F - 21.7 °F 20% 30.03 in 10.0 mi NNE 2.3 mph - N/A   Mostly Cloudy
5:58 PM 60.1 °F - 28.0 °F 30% 30.03 in 10.0 mi North 2.3 mph - N/A   Mostly Cloudy
6:58 PM 57.2 °F - 31.5 °F 38% 30.04 in 10.0 mi WNW 4.6 mph - N/A   Mostly Cloudy
7:58 PM 54.0 °F - 35.6 °F 50% 30.05 in 10.0 mi North 3.5 mph - N/A   Mostly Cloudy
8:58 PM 51.4 °F - 32.2 °F 48% 30.04 in 10.0 mi NNW 5.8 mph - N/A   Mostly Cloudy
9:58 PM 49.6 °F - 32.5 °F 52% 30.05 in 10.0 mi NNE 1.2 mph - N/A   Clear
10:58 PM 51.6 °F - 27.5 °F 39% 30.05 in 10.0 mi NE 2.3 mph - N/A   Clear
11:58 PM 48.6 °F - 32.4 °F 54% 30.05 in 10.0 mi North 3.5 mph - N/A   Clear